Home   Weather   Fremont   Past weeks

Flag for USA Past Weather in Fremont, California, USA — Yesterday and Last 2 Weeks

Now
53 °F

Rain. Fog.


Feels Like: 49 °F
Forecast: 55 / 62 °F
Wind: 13 mph from Southeast

Location: Moffett Field

Current Time: Feb 20, 2017 at 3:39:56 am

Latest Report: Feb 20, 2017 at 2:56 am


Visibility: 6 mi

Pressure: 29.90 "Hg

Humidity: 100%

Dew Point: 53 °F

Location of FremontLocation

Past Weather in Fremont — Graph

°F

Fremont Temperature Yesterday

Maximum temperature yesterday: 56 °F (at 1:56 pm)
Minimum temperature yesterday: 48 °F (at 12:56 am)
Average temperature yesterday: 52 °F

High & Low Weather Summary for the Past Weeks

 TemperatureHumidityPressure
High70 °F (Feb 15, 3:56 pm)100% (Feb 13, 7:56 am)30.28 "Hg (Feb 13, 7:56 am)
Low42 °F (Feb 12, 3:56 am)31% (Feb 15, 5:56 pm)29.16 "Hg (Feb 17, 4:56 pm)
Average56 °F79%29.94 "Hg
* Reported Feb 5 1:56 am — Feb 20 1:56 am, Fremont, Weather by CustomWeather, © 2017

Note: Actual official high and low records may vary slightly from our data, if they occured in-between our weather recording intervals... More about our weather records

Advertising

Fremont Weather History for the Previous 24 Hours

Scroll right to see more
 ConditionsComfort  
Time TempWeatherWind HumidityBarometerVisibility
1:56 am
Mon, Feb 20
53 °FLight rain. Mostly cloudy.16 mph96%29.88 "Hg10 mi
12:56 am53 °FLight rain. Mostly cloudy.10 mph93%29.91 "Hg9 mi
11:56 pm
Sun, Feb 19
54 °FPartly cloudy.17 mph83%29.90 "Hg10 mi
10:56 pm54 °FPassing clouds.22 mph80%29.89 "Hg10 mi
9:56 pm55 °FPassing clouds.15 mph74%29.92 "Hg10 mi
8:56 pm55 °FOvercast.12 mph77%29.91 "Hg10 mi
7:56 pm55 °FPartly cloudy.12 mph77%29.91 "Hg10 mi
6:56 pm54 °FMostly cloudy.14 mph80%29.89 "Hg10 mi
5:56 pm53 °FOvercast.20 mph86%29.86 "Hg10 mi
4:56 pm54 °FCloudy.15 mph80%29.85 "Hg10 mi
3:56 pm55 °FScattered clouds.20 mph77%29.81 "Hg10 mi
2:56 pm55 °FPartly sunny.16 mph72%29.83 "Hg10 mi
1:56 pm56 °FPartly sunny.13 mph70%29.83 "Hg10 mi
12:56 pm55 °FMostly cloudy.15 mph74%29.84 "Hg10 mi
11:56 am53 °FLight rain. Overcast.15 mph74%29.87 "Hg10 mi
10:56 am53 °FOvercast.13 mph72%29.88 "Hg10 mi
9:56 am52 °FOvercast.9 mph75%29.88 "Hg10 mi
8:56 am51 °FOvercast.9 mph74%29.87 "Hg10 mi
7:56 am49 °FMostly cloudy.10 mph80%29.87 "Hg10 mi
6:56 am49 °FOvercast.12 mph77%29.86 "Hg10 mi
5:56 am49 °FMostly cloudy.7 mph77%29.85 "Hg10 mi
4:56 am48 °FMostly cloudy.7 mph83%29.85 "Hg10 mi
3:56 am49 °FLight rain. Overcast.6 mph84%29.85 "Hg10 mi
Weather by CustomWeather, © 2017

See weather overviewHow to use our weather pages